Find Starlink 31181

NORAD ID: 58746 Int'l Des: 2024-005 Owner: SPXS Country: US Constellation: starlink operational
LEOCIRCULAR

Live-Position

3D-Globus wird geladen...

Über Starlink 31181

Beschreibung wird geladen...

Nächste Überflüge

Passes for default location (London). Set your location on the main map for personalized predictions.

Höhenverlauf

Loading altitude history...

Zweizeiliger Elementsatz

1 58746U 24005U 26124.99775361 -.00001960 00000-0 -61710-4 0 9990
2 58746 43.0025 109.5225 0000817 282.0675 78.0085 15.27580695130893
Epoch: 4. Mai 2026 • Age: 16 hours

Aktueller Status

Höhe 482.4 km
Geschwindigkeit 7.63 km/s
Subsatellitenpunkt 3.29°N, 10.92°E
Startdatum 7. Jan. 2024
Alter 2.3 years
Typ internet

Technische Details

Klassifizierung Payload
Masse 730.00 kg
Trockenmasse 700.00 kg
Gesamtmasse 730.00 kg
Länge 0.30 m
Durchmesser 4.10 m
Spannweite 29.00 m
Form Box + pan
Hersteller SPXS
Bus-Typ Starlink V2M
Phasenstatus In Orbit
Besitzer/Staat SPXS/US

Most Searched